TimeCDT,TemperatureF,Dew PointF,Humidity,Sea Level PressureIn,VisibilityMPH,Wind Direction,Wind SpeedMPH,Gust SpeedMPH,PrecipitationIn,Events,Conditions,WindDirDegrees,DateUTC
12:15 AM,60.8,55.4,82,29.85,10.0,ENE,8.1,-,0.01,,Light Drizzle,70,2012-03-22 05:15:00
12:35 AM,60.8,55.4,82,29.87,10.0,ESE,4.6,-,0.01,Rain,Light Rain,120,2012-03-22 05:35:00
12:55 AM,59.0,55.4,88,29.87,3.0,ESE,15.0,-,0.04,Rain,Heavy Rain,110,2012-03-22 05:55:00
1:15 AM,59.0,55.4,88,29.87,5.0,ESE,9.2,-,0.01,Rain,Light Rain,110,2012-03-22 06:15:00
1:35 AM,59.0,55.4,88,29.88,10.0,SE,9.2,-,0.01,Rain,Light Rain,130,2012-03-22 06:35:00
1:55 AM,59.0,55.4,88,29.88,10.0,SSE,6.9,-,0.01,,Drizzle,150,2012-03-22 06:55:00
2:15 AM,55.4,51.8,88,29.91,10.0,SSW,12.7,-,0.01,Rain,Light Rain,210,2012-03-22 07:15:00
2:35 AM,53.6,48.2,82,29.91,10.0,SSW,6.9,-,0.02,Rain,Rain,200,2012-03-22 07:35:00
2:55 AM,53.6,48.2,82,29.90,10.0,SSW,5.8,-,0.03,Rain,Rain,200,2012-03-22 07:55:00
3:15 AM,53.6,48.2,82,29.92,10.0,South,5.8,-,0.02,Rain,Rain,170,2012-03-22 08:15:00
3:35 AM,53.6,48.2,82,29.91,10.0,SSE,3.5,-,0.03,,Overcast,160,2012-03-22 08:35:00
3:55 AM,53.6,48.2,82,29.91,10.0,South,4.6,-,0.03,Rain,Light Rain,170,2012-03-22 08:55:00
4:15 AM,51.8,48.2,88,29.91,10.0,South,5.8,-,N/A,,Mostly Cloudy,170,2012-03-22 09:15:00
4:35 AM,51.8,48.2,88,29.90,10.0,SSE,4.6,-,N/A,,Overcast,160,2012-03-22 09:35:00
4:55 AM,51.8,48.2,88,29.91,10.0,South,8.1,-,N/A,,Mostly Cloudy,170,2012-03-22 09:55:00
5:15 AM,51.8,46.4,82,29.92,10.0,SSE,6.9,-,N/A,,Scattered Clouds,150,2012-03-22 10:15:00
5:35 AM,51.8,46.4,82,29.93,10.0,South,6.9,-,N/A,,Clear,180,2012-03-22 10:35:00
5:55 AM,51.8,46.4,82,29.93,10.0,SSE,4.6,-,N/A,,Scattered Clouds,160,2012-03-22 10:55:00
6:15 AM,50.0,46.4,87,29.93,10.0,South,5.8,-,N/A,,Scattered Clouds,180,2012-03-22 11:15:00
6:35 AM,50.0,46.4,87,29.95,10.0,SE,4.6,-,N/A,,Scattered Clouds,130,2012-03-22 11:35:00
6:55 AM,48.2,44.6,87,29.95,10.0,SE,4.6,-,N/A,,Scattered Clouds,130,2012-03-22 11:55:00
7:15 AM,48.2,44.6,87,29.95,10.0,SE,4.6,-,N/A,,Scattered Clouds,140,2012-03-22 12:15:00
7:35 AM,46.4,44.6,93,29.95,10.0,Calm,Calm,-,N/A,,Clear,0,2012-03-22 12:35:00
7:55 AM,46.4,44.6,93,29.95,7.0,Calm,Calm,-,N/A,,Clear,0,2012-03-22 12:55:00
8:15 AM,46.4,44.6,93,29.96,5.0,Calm,Calm,-,N/A,,Scattered Clouds,0,2012-03-22 13:15:00
8:35 AM,48.2,44.6,87,29.97,5.0,East,4.6,-,N/A,,Clear,80,2012-03-22 13:35:00
8:55 AM,50.0,46.4,87,29.96,5.0,SSE,3.5,-,N/A,,Clear,150,2012-03-22 13:55:00
9:15 AM,50.0,46.4,87,29.97,5.0,SE,4.6,-,N/A,,Clear,140,2012-03-22 14:15:00
9:35 AM,51.8,48.2,88,29.96,7.0,SSE,4.6,-,N/A,,Clear,160,2012-03-22 14:35:00
9:55 AM,51.8,48.2,88,29.97,10.0,South,3.5,-,N/A,,Clear,170,2012-03-22 14:55:00
10:15 AM,53.6,48.2,82,29.98,10.0,SSE,6.9,-,N/A,,Scattered Clouds,150,2012-03-22 15:15:00
10:35 AM,55.4,48.2,77,29.98,10.0,SE,8.1,-,N/A,,Scattered Clouds,140,2012-03-22 15:35:00
10:55 AM,55.4,48.2,77,29.99,10.0,South,8.1,-,N/A,,Scattered Clouds,170,2012-03-22 15:55:00
11:15 AM,57.2,48.2,72,29.99,10.0,SSE,9.2,-,N/A,,Clear,160,2012-03-22 16:15:00
11:35 AM,57.2,46.4,67,29.98,10.0,SSE,8.1,-,N/A,,Scattered Clouds,160,2012-03-22 16:35:00
11:55 AM,60.8,48.2,63,29.97,10.0,SSE,6.9,-,N/A,,Scattered Clouds,150,2012-03-22 16:55:00
12:15 PM,60.8,46.4,59,29.97,10.0,SSE,8.1,-,N/A,,Scattered Clouds,150,2012-03-22 17:15:00
12:35 PM,60.8,46.4,59,29.97,10.0,SSE,5.8,-,N/A,,Scattered Clouds,150,2012-03-22 17:35:00
12:55 PM,62.6,48.2,59,29.96,10.0,South,8.1,-,N/A,,Scattered Clouds,180,2012-03-22 17:55:00
1:15 PM,60.8,46.4,59,29.96,10.0,SSW,4.6,-,N/A,,Mostly Cloudy,200,2012-03-22 18:15:00
1:35 PM,60.8,46.4,59,29.96,10.0,ESE,3.5,-,N/A,,Mostly Cloudy,110,2012-03-22 18:35:00
1:55 PM,60.8,46.4,59,29.95,10.0,ESE,5.8,-,N/A,,Mostly Cloudy,110,2012-03-22 18:55:00
2:15 PM,62.6,46.4,55,29.94,10.0,SE,8.1,-,N/A,,Mostly Cloudy,140,2012-03-22 19:15:00
2:35 PM,64.4,46.4,52,29.94,10.0,SE,8.1,-,N/A,,Scattered Clouds,130,2012-03-22 19:35:00
2:55 PM,64.4,44.6,49,29.93,10.0,SSE,10.4,-,N/A,,Scattered Clouds,160,2012-03-22 19:55:00
3:15 PM,64.4,44.6,49,29.93,10.0,SSE,5.8,10.4,N/A,,Scattered Clouds,160,2012-03-22 20:15:00
3:35 PM,64.4,44.6,49,29.91,10.0,SE,11.5,-,N/A,,Scattered Clouds,130,2012-03-22 20:35:00
3:55 PM,64.4,46.4,52,29.91,10.0,ESE,8.1,-,N/A,,Scattered Clouds,110,2012-03-22 20:55:00
4:15 PM,64.4,44.6,49,29.91,10.0,SE,9.2,-,N/A,,Scattered Clouds,140,2012-03-22 21:15:00
4:35 PM,62.6,44.6,52,29.90,10.0,ESE,4.6,-,N/A,,Scattered Clouds,120,2012-03-22 21:35:00
4:55 PM,64.4,46.4,52,29.91,10.0,ESE,9.2,-,N/A,,Scattered Clouds,120,2012-03-22 21:55:00
5:35 PM,64.4,44.6,49,29.90,10.0,ESE,5.8,-,N/A,,Clear,110,2012-03-22 22:35:00
5:55 PM,64.4,44.6,49,29.89,10.0,ESE,8.1,-,N/A,,Scattered Clouds,110,2012-03-22 22:55:00
6:15 PM,64.4,46.4,52,29.89,10.0,East,4.6,-,N/A,,Scattered Clouds,90,2012-03-22 23:15:00
6:35 PM,62.6,46.4,55,29.89,10.0,ESE,5.8,-,N/A,,Clear,120,2012-03-22 23:35:00
6:55 PM,62.6,46.4,55,29.90,10.0,ESE,4.6,-,N/A,,Clear,110,2012-03-22 23:55:00
7:15 PM,60.8,46.4,59,29.90,10.0,East,4.6,-,N/A,,Clear,100,2012-03-23 00:15:00
7:35 PM,57.2,46.4,67,29.90,10.0,ESE,3.5,-,N/A,,Clear,110,2012-03-23 00:35:00
7:55 PM,55.4,46.4,72,29.93,7.0,South,12.7,19.6,N/A,,Scattered Clouds,180,2012-03-23 00:55:00
8:15 PM,53.6,46.4,77,29.93,10.0,SSW,10.4,19.6,N/A,,Mostly Cloudy,200,2012-03-23 01:15:00
8:35 PM,53.6,46.4,77,29.94,10.0,SW,6.9,-,N/A,,Overcast,220,2012-03-23 01:35:00
8:55 PM,51.8,46.4,82,29.94,10.0,WSW,5.8,-,N/A,Rain,Rain,250,2012-03-23 01:55:00
9:15 PM,51.8,46.4,82,29.94,10.0,WSW,4.6,-,N/A,Rain,Light Rain,250,2012-03-23 02:15:00
9:35 PM,51.8,44.6,76,29.95,10.0,WSW,3.5,-,N/A,,Mostly Cloudy,240,2012-03-23 02:35:00
9:55 PM,51.8,44.6,76,29.94,10.0,WNW,4.6,-,N/A,,Overcast,290,2012-03-23 02:55:00
10:15 PM,51.8,44.6,76,29.94,10.0,Calm,Calm,-,N/A,,Overcast,0,2012-03-23 03:15:00
10:35 PM,51.8,44.6,76,29.94,10.0,Calm,Calm,-,N/A,,Overcast,0,2012-03-23 03:35:00
10:55 PM,51.8,46.4,82,29.94,10.0,Calm,Calm,-,N/A,,Overcast,0,2012-03-23 03:55:00
11:15 PM,51.8,44.6,76,29.95,10.0,Calm,Calm,-,N/A,,Overcast,0,2012-03-23 04:15:00
11:35 PM,51.8,46.4,82,29.96,10.0,SSE,4.6,-,N/A,Rain,Rain,150,2012-03-23 04:35:00
11:55 PM,51.8,46.4,82,29.96,10.0,SSE,6.9,-,0.02,Rain,Heavy Rain,150,2012-03-23 04:55:00